Delta Virtual Airport Information Service

Boston Logan International Airport

ICAO: KBOS Country: United States
Latitude: 42.363 Longitude: -71.0064
Latest Arrival : DAL2871 (1) (KJFK-KBOS) Latest Departure : DALJUMP (KBOS-KJFK)


WX CaptureLIVE
Data provided by noaa.gov | Fetched at 21:59:20

METAR : KBOS 240154Z 16003KT 10SM OVC007 13/13 A3009 RMK AO2 SLP188 T01330128

TAF : KBOS 240000Z 2400/2506 12007KT P6SM BKN008 FM240500 16004KT P6SM BKN008 FM240700 17003KT 6SM BR BKN008 FM241500 23007KT P6SM BKN010 FM242200 30011KT P6SM BKN050


Runway Data for KBOS
Data provided by openaviationdata.com

Runway ID Mag Var Hdg Length Elevation Surface ILS Freq ILS Id ILS Slope
04L -15 35° 7475 ft 0 ft Bituminous -- -- --
04R -15 35° 7513 ft 0 ft Bituminous 110.3 IBOS 3
9 -15 92° 6761 ft 0 ft Bituminous -- -- --
14 -15 140° 5033 ft 0 ft Asphalt -- -- --
15L -15 151° 2555 ft 0 ft Asphalt -- -- --
15R -15 151° 9857 ft 0 ft Bituminous 110.7 IMDC 3
22L -15 215° 7513 ft 0 ft Bituminous 110.3 ILQN 3
22R -15 215° 7475 ft 0 ft Bituminous -- -- --
27 -15 272° 6761 ft 0 ft Bituminous 111.3 IDGU 3
32 -15 320° 5033 ft 0 ft Asphalt -- -- --
33L -15 331° 9857 ft 0 ft Bituminous 110.7 ILIP 3
33R -15 331° 2555 ft 0 ft Asphalt -- -- --

Boston Logan International Airport, United States
Use only for reference purposes



Not for navigational purposes.